FW3613 Weather Reports


Display with metric or nautical units.
time (UTC)temp
F
wind
direction
speed
MPH
gust
MPH
rain 1hr
in
rain 24hr
in
rain mn
in
humidity
%
barometer
mb
20260902133004 65 214 0.0 3.0 0.00 0.00 0.00 46 1009.2
20260902132503 66 340 0.0 3.0 0.00 0.00 0.00 38 1009.2
20260902132005 66 297 0.0 4.0 0.00 0.00 0.00 35 1009.2
20260902131504 66 314 1.0 4.0 0.00 0.00 0.00 35 1009.1
20260902131001 66 322 0.0 4.0 0.00 0.00 0.00 37 1008.7
20260902130502 67 328 0.0 3.0 0.00 0.00 0.00 37 1008.7
20260902125501 67 312 1.0 5.0 0.00 0.00 0.00 29 1009.1
20260902125103 67 307 2.0 5.0 0.00 0.00 0.00 28 1008.8
20260902124559 66 326 1.0 3.0 0.00 0.00 0.00 31 1008.6
20260902124102 65 295 0.0 3.0 0.00 0.00 0.00 33 1008.5
20260902123557 65 328 0.0 1.0 0.00 0.00 0.00 43 1008.3
20260902123104 65 329 0.0 1.0 0.00 0.00 0.00 44 1008.5
20260902122559 65 328 0.0 3.0 0.00 0.00 0.00 44 1008.7
20260902122054 66 328 0.0 4.0 0.00 0.00 0.00 38 1008.5
20260902121554 65 321 1.0 3.0 0.00 0.00 0.00 37 1008.2
20260902121054 65 330 0.0 3.0 0.00 0.00 0.00 39 1008.0
20260902120554 64 330 0.0 3.0 0.00 0.00 0.00 39 1008.0
20260902120053 65 358 0.0 0.0 0.00 0.00 0.00 43 1008.1
20260902115552 65 359 0.0 0.0 0.00 0.00 0.00 43 1008.1
20260902115053 65 358 0.0 1.0 0.00 0.00 0.00 41 1008.1
20260902114553 65 359 0.0 2.0 0.00 0.00 0.00 39 1008.1
20260902114053 65 339 0.0 2.0 0.00 0.00 0.00 40 1008.0
20260902113552 66 134 0.0 1.0 0.00 0.00 0.00 40 1008.1
20260902113057 66 134 0.0 4.0 0.00 0.00 0.00 40 1008.1
20260902112553 66 326 1.0 4.0 0.00 0.00 0.00 37 1008.0
20260902112050 66 318 0.0 4.0 0.00 0.00 0.00 37 1007.9
20260902111549 66 316 0.0 2.0 0.00 0.00 0.00 39 1007.9
20260902111048 65 319 0.0 2.0 0.00 0.00 0.00 42 1007.9
20260902110548 65 246 0.0 3.0 0.00 0.00 0.00 47 1007.8
20260902110048 65 321 0.0 5.0 0.00 0.00 0.00 46 1007.8
20260902105550 63 308 2.0 5.0 0.00 0.00 0.00 42 1007.7
20260902105046 60 305 1.0 4.0 0.00 0.00 0.00 64 1007.7
20260902104545 59 148 0.0 1.0 0.00 0.00 0.00 77 1007.7
20260902104045 59 148 0.0 1.0 0.00 0.00 0.00 77 1007.6
20260902103543 59 148 0.0 1.0 0.00 0.00 0.00 76 1007.6
20260902103045 59 148 0.0 1.0 0.00 0.00 0.00 77 1007.6
20260902102543 59 148 0.0 1.0 0.00 0.00 0.00 77 1007.6
20260902102044 59 148 0.0 1.0 0.00 0.00 0.00 77 1007.5
20260902101542 59 148 0.0 1.0 0.00 0.00 0.00 77 1007.6
20260902101046 59 147 0.0 0.0 0.00 0.00 0.00 76 1007.5
20260902100541 59 146 0.0 1.0 0.00 0.00 0.00 77 1007.5
20260902100040 60 147 0.0 1.0 0.00 0.00 0.00 77 1007.3
20260902095540 60 147 0.0 0.0 0.00 0.00 0.00 76 1007.2
20260902095038 60 146 0.0 0.0 0.00 0.00 0.00 76 1007.2
20260902094538 60 146 0.0 1.0 0.00 0.00 0.00 75 1007.2
20260902094037 60 147 0.0 1.0 0.00 0.00 0.00 75 1007.2
20260902093535 60 147 0.0 0.0 0.00 0.00 0.00 74 1007.1
20260902093038 60 147 0.0 1.0 0.00 0.00 0.00 74 1007.1
20260902092539 60 146 0.0 1.0 0.00 0.00 0.00 73 1007.1
20260902092034 60 145 0.0 0.0 0.00 0.00 0.00 72 1007.1
20260902091533 60 145 0.0 2.0 0.00 0.00 0.00 72 1007.1
20260902091032 61 146 0.0 2.0 0.00 0.00 0.00 73 1006.9
20260902090536 61 146 0.0 0.0 0.00 0.00 0.00 72 1006.8
20260902090034 61 148 0.0 0.0 0.00 0.00 0.00 70 1006.8
20260902085530 61 148 0.0 0.0 0.00 0.00 0.00 70 1006.8
20260902085030 60 148 0.0 2.0 0.00 0.00 0.00 71 1006.8
20260902084529 61 148 1.0 2.0 0.00 0.00 0.00 71 1006.7
20260902084027 61 137 0.0 0.0 0.00 0.00 0.00 70 1006.5
20260902083528 61 137 0.0 0.0 0.00 0.00 0.00 71 1006.5
20260902083026 61 136 0.0 1.0 0.00 0.00 0.00 70 1006.4
20260902082525 61 136 0.0 1.0 0.00 0.00 0.00 71 1006.4
20260902082024 62 136 0.0 1.0 0.00 0.00 0.00 68 1006.3
20260902081524 62 136 0.0 0.0 0.00 0.00 0.00 69 1006.2
20260902081022 62 136 0.0 0.0 0.00 0.00 0.00 69 1006.3
20260902080522 62 137 0.0 1.0 0.00 0.00 0.00 69 1006.2
20260902080019 63 137 0.0 1.0 0.00 0.00 0.00 69 1006.2
20260902075517 63 136 0.0 0.0 0.00 0.00 0.00 65 1006.1
20260902075017 63 136 0.0 0.0 0.00 0.00 0.00 64 1006.1
20260902074516 63 136 0.0 0.0 0.00 0.00 0.00 64 1006.1
20260902074015 63 136 0.0 0.0 0.00 0.00 0.00 63 1006.1
20260902073514 64 136 0.0 0.0 0.00 0.00 0.00 63 1006.1
20260902073017 64 136 0.0 0.0 0.00 0.00 0.00 63 1006.1
20260902072512 64 136 0.0 1.0 0.00 0.00 0.00 62 1006.0
20260902072012 65 137 0.0 1.0 0.00 0.00 0.00 61 1005.9
20260902071510 66 136 0.0 1.0 0.00 0.00 0.00 57 1005.9
20260902071008 66 132 0.0 1.0 0.00 0.00 0.00 55 1005.9
20260902070508 67 129 0.0 2.0 0.00 0.00 0.00 52 1005.8
20260902070011 67 139 0.0 3.0 0.00 0.00 0.00 53 1005.8
20260902065506 68 150 1.0 3.0 0.00 0.00 0.00 52 1005.7
20260902065010 68 321 1.0 3.0 0.00 0.00 0.00 50 1005.7
20260902064505 68 274 0.0 6.0 0.00 0.00 0.00 50 1005.7
20260902064005 69 173 0.0 7.0 0.00 0.00 0.00 49 1005.6
20260902063509 69 322 3.0 7.0 0.00 0.00 0.00 48 1005.6
20260902063005 69 328 2.0 8.0 0.00 0.00 0.00 48 1005.5
20260902062505 68 307 2.0 8.0 0.00 0.00 0.00 47 1005.6
20260902062002 67 321 3.0 8.0 0.00 0.00 0.00 49 1005.6
20260902061103 66 315 1.0 3.0 0.00 0.00 0.00 52 1005.2
20260902060558 66 139 0.0 1.0 0.00 0.00 0.00 55 1005.2
20260902060101 66 138 0.0 1.0 0.00 0.00 0.00 55 1005.2
20260902055555 66 135 0.0 1.0 0.00 0.00 0.00 55 1005.3
20260902055054 66 135 0.0 1.0 0.00 0.00 0.00 53 1005.4
20260902054610 66 135 0.0 1.0 0.00 0.00 0.00 54 1005.5
20260902054053 66 135 0.0 1.0 0.00 0.00 0.00 55 1005.5
20260902053553 65 136 0.0 1.0 0.00 0.00 0.00 55 1005.5
20260902053103 65 139 0.0 1.0 0.00 0.00 0.00 57 1005.5
20260902052555 65 139 0.0 3.0 0.00 0.00 0.00 58 1005.6
20260902052053 66 136 0.0 2.0 0.00 0.00 0.00 57 1005.6
20260902051552 66 139 0.0 1.0 0.00 0.00 0.00 55 1005.6
20260902051052 66 139 0.0 1.0 0.00 0.00 0.00 56 1005.6
20260902050554 66 139 0.0 1.0 0.00 0.00 0.00 56 1005.8
20260902050056 66 139 0.0 1.0 0.00 0.00 0.00 55 1005.8
20260902045552 66 139 0.0 1.0 0.00 0.00 0.00 55 1005.7
20260902045051 66 141 0.0 1.0 0.00 0.00 0.00 54 1005.7
20260902044553 67 120 0.0 1.0 0.00 0.00 0.00 52 1005.7
20260902044051 67 120 0.0 1.0 0.00 0.00 0.00 53 1005.8
20260902043550 68 120 0.0 0.0 0.00 0.00 0.00 52 1005.8
20260902043050 68 120 0.0 1.0 0.00 0.00 0.00 52 1005.8
20260902042550 68 120 0.0 1.0 0.00 0.00 0.00 51 1005.9
20260902042050 69 120 0.0 1.0 0.00 0.00 0.00 51 1005.8
20260902041549 69 120 0.0 1.0 0.00 0.00 0.00 50 1005.9
20260902041052 70 120 0.0 1.0 0.00 0.00 0.00 49 1005.9
20260902040549 70 120 0.0 1.0 0.00 0.00 0.00 46 1005.9
20260902040052 70 120 0.0 1.0 0.00 0.00 0.00 47 1005.9
20260902035548 70 120 0.0 1.0 0.00 0.00 0.00 47 1005.9
20260902035048 70 120 0.0 1.0 0.00 0.00 0.00 47 1005.9
20260902034551 70 120 0.0 3.0 0.00 0.00 0.00 46 1006.0
20260902034048 70 107 0.0 3.0 0.00 0.00 0.00 47 1005.9
20260902033548 70 146 0.0 1.0 0.00 0.00 0.00 48 1005.9
20260902033048 70 146 0.0 1.0 0.00 0.00 0.00 49 1005.9
20260902032548 71 146 0.0 1.0 0.00 0.00 0.00 46 1005.8
20260902032048 72 146 0.0 1.0 0.00 0.00 0.00 46 1005.7
20260902031548 72 146 0.0 0.0 0.00 0.00 0.00 46 1005.7
20260902031047 72 146 0.0 0.0 0.00 0.00 0.00 46 1005.7
20260902030546 73 146 0.0 1.0 0.00 0.00 0.00 45 1005.8
20260902030046 73 146 0.0 1.0 0.00 0.00 0.00 44 1005.7
20260902025546 74 146 0.0 1.0 0.00 0.00 0.00 43 1005.7
20260902025047 74 146 0.0 1.0 0.00 0.00 0.00 41 1005.6
20260902024547 75 146 0.0 1.0 0.00 0.00 0.00 40 1005.5
20260902024046 75 146 0.0 1.0 0.00 0.00 0.00 39 1005.4
20260902023545 76 146 0.0 2.0 0.00 0.00 0.00 36 1005.5
20260902023100 77 144 0.0 2.0 0.00 0.00 0.00 36 1005.5
20260902022545 78 204 0.0 1.0 0.00 0.00 0.00 35 1005.5
20260902022044 79 225 0.0 1.0 0.00 0.00 0.00 32 1005.5
20260902021544 80 224 0.0 2.0 0.00 0.00 0.00 32 1005.5
20260902021046 81 297 0.0 3.0 0.00 0.00 0.00 30 1005.6
20260902020544 81 309 1.0 4.0 0.00 0.00 0.00 27 1005.5
20260902020043 81 309 1.0 8.0 0.00 0.00 0.00 28 1005.5
20260902015543 81 306 3.0 8.0 0.00 0.00 0.00 28 1005.6
20260902015043 81 306 1.0 5.0 0.00 0.00 0.00 30 1005.7
20260902014543 81 324 2.0 6.0 0.00 0.00 0.00 30 1005.7
20260902014045 81 309 3.0 8.0 0.00 0.00 0.00 30 1005.7
20260902013544 81 326 3.0 8.0 0.00 0.00 0.00 31 1005.7
20260902013052 81 319 1.0 6.0 0.00 0.00 0.00 31 1005.7
20260902012542 81 322 2.0 6.0 0.00 0.00 0.00 30 1005.8
20260902012042 81 326 3.0 6.0 0.00 0.00 0.00 30 1005.8
20260902011542 82 319 2.0 4.0 0.00 0.00 0.00 31 1005.7
20260902011042 82 319 1.0 5.0 0.00 0.00 0.00 30 1005.9
20260902010541 82 330 2.0 6.0 0.00 0.00 0.00 30 1005.8
20260902010041 82 327 2.0 9.0 0.00 0.00 0.00 30 1005.8
20260902005541 82 305 1.0 9.0 0.00 0.00 0.00 30 1005.9
20260902005044 82 309 3.0 8.0 0.00 0.00 0.00 31 1005.8
20260902004541 82 336 4.0 8.0 0.00 0.00 0.00 31 1005.8
20260902004040 83 319 2.0 8.0 0.00 0.00 0.00 32 1005.8
20260902003540 83 333 2.0 8.0 0.00 0.00 0.00 32 1005.7
20260902003042 83 329 3.0 9.0 0.00 0.00 0.00 31 1005.7
20260902002539 83 308 5.0 9.0 0.00 0.00 0.00 31 1005.7
20260902002039 84 322 2.0 8.0 0.00 0.00 0.00 32 1005.7
20260902001554 84 307 4.0 8.0 0.00 0.00 0.00 31 1005.7
20260902001041 84 322 4.0 10.0 0.00 0.00 0.00 31 1005.6
20260902000538 84 323 2.0 10.0 0.00 0.00 0.00 31 1005.7
20260902000043 85 323 5.0 9.0 0.00 0.00 0.00 31 1005.6
20260901235540 85 316 4.0 7.0 0.00 0.00 0.00 30 1005.5
20260901235038 85 318 3.0 8.0 0.00 0.00 0.00 30 1005.6
20260901234537 85 328 3.0 8.0 0.00 0.00 0.00 31 1005.7
20260901234038 85 338 3.0 8.0 0.00 0.00 0.00 30 1005.7
20260901233536 86 307 4.0 7.0 0.00 0.00 0.00 29 1005.8
20260901233036 86 319 3.0 8.0 0.00 0.00 0.00 29 1005.8
20260901232535 86 323 3.0 8.0 0.00 0.00 0.00 29 1005.9
20260901232034 86 329 4.0 7.0 0.00 0.00 0.00 29 1005.9
20260901231533 86 326 3.0 8.0 0.00 0.00 0.00 30 1006.0
20260901231034 87 321 3.0 9.0 0.00 0.00 0.00 29 1006.1
20260901230532 87 314 3.0 9.0 0.00 0.00 0.00 30 1006.1
20260901230033 87 304 1.0 8.0 0.00 0.00 0.00 30 1006.2
20260901225531 87 328 3.0 8.0 0.00 0.00 0.00 29 1006.2
20260901225031 87 323 3.0 8.0 0.00 0.00 0.00 29 1006.3
20260901224529 87 340 2.0 7.0 0.00 0.00 0.00 28 1006.5
20260901224029 87 302 1.0 6.0 0.00 0.00 0.00 29 1006.5
20260901223527 87 314 1.0 6.0 0.00 0.00 0.00 29 1006.6
20260901223027 87 314 2.0 6.0 0.00 0.00 0.00 29 1006.6
20260901222529 87 169 1.0 5.0 0.00 0.00 0.00 31 1006.7
20260901222026 87 319 1.0 4.0 0.00 0.00 0.00 30 1006.7
20260901221524 86 143 1.0 4.0 0.00 0.00 0.00 30 1006.9
20260901221023 86 303 1.0 5.0 0.00 0.00 0.00 31 1007.0
20260901220521 85 319 1.0 5.0 0.00 0.00 0.00 31 1007.0
20260901220022 86 309 2.0 5.0 0.00 0.00 0.00 31 1007.1
20260901215522 86 317 2.0 4.0 0.00 0.00 0.00 31 1007.2
20260901215021 85 318 0.0 7.0 0.00 0.00 0.00 32 1007.3
20260901214521 85 308 0.0 7.0 0.00 0.00 0.00 33 1007.5
20260901214017 85 311 1.0 6.0 0.00 0.00 0.00 34 1007.6
20260901213517 84 305 2.0 7.0 0.00 0.00 0.00 34 1007.6
20260901213018 84 312 1.0 7.0 0.00 0.00 0.00 35 1007.7
20260901212516 84 298 1.0 8.0 0.00 0.00 0.00 36 1007.7
20260901212018 84 321 2.0 8.0 0.00 0.00 0.00 36 1007.7
20260901211516 83 323 2.0 6.0 0.00 0.00 0.00 37 1007.9
20260901211013 83 323 2.0 6.0 0.00 0.00 0.00 36 1007.9
20260901210517 83 308 2.0 6.0 0.00 0.00 0.00 38 1008.0
20260901210012 82 323 1.0 6.0 0.00 0.00 0.00 38 1008.1
20260901205513 82 316 3.0 6.0 0.00 0.00 0.00 38 1008.2
20260901205012 82 302 1.0 6.0 0.00 0.00 0.00 39 1008.3
20260901204513 82 270 2.0 5.0 0.00 0.00 0.00 38 1008.3
20260901204010 82 222 1.0 4.0 0.00 0.00 0.00 39 1008.4
20260901203509 81 305 2.0 8.0 0.00 0.00 0.00 39 1008.4
20260901203009 82 99 3.0 8.0 0.00 0.00 0.00 39 1008.5
20260901202507 81 134 1.0 7.0 0.00 0.00 0.00 41 1008.6
20260901202006 80 319 1.0 7.0 0.00 0.00 0.00 42 1008.7
20260901201505 80 283 2.0 8.0 0.00 0.00 0.00 42 1008.8
20260901201005 80 318 4.0 8.0 0.00 0.00 0.00 42 1008.9
20260901200503 79 304 2.0 9.0 0.00 0.00 0.00 42 1008.9
20260901200003 79 305 4.0 9.0 0.00 0.00 0.00 43 1009.1
20260901195504 78 322 3.0 9.0 0.00 0.00 0.00 44 1009.2
20260901195003 78 349 4.0 9.0 0.00 0.00 0.00 44 1009.3
20260901194502 78 329 4.0 8.0 0.00 0.00 0.00 45 1009.3
20260901194002 77 320 3.0 6.0 0.00 0.00 0.00 46 1009.5
20260901193502 77 322 2.0 11.0 0.00 0.00 0.00 46 1009.6
20260901193002 77 1 4.0 11.0 0.00 0.00 0.00 47 1009.7
20260901192502 77 342 5.0 11.0 0.00 0.00 0.00 47 1009.8
20260901192002 77 300 5.0 10.0 0.00 0.00 0.00 46 1009.8
20260901191502 77 322 4.0 9.0 0.00 0.00 0.00 46 1009.9
20260901191100 77 333 5.0 9.0 0.00 0.00 0.00 45 1009.8
20260901190600 77 326 4.0 9.0 0.00 0.00 0.00 45 1009.8
20260901190100 77 313 3.0 9.0 0.00 0.00 0.00 44 1009.7
20260901185600 78 324 2.0 8.0 0.00 0.00 0.00 45 1009.7
20260901185059 78 319 2.0 7.0 0.00 0.00 0.00 44 1009.7
20260901184559 78 324 2.0 6.0 0.00 0.00 0.00 45 1009.7
20260901184059 78 326 2.0 6.0 0.00 0.00 0.00 45 1009.6
20260901183558 78 148 0.0 3.0 0.00 0.00 0.00 44 1009.7
20260901183101 78 139 0.0 5.0 0.00 0.00 0.00 46 1009.7
20260901182601 78 328 1.0 6.0 0.00 0.00 0.00 46 1009.6
20260901182057 78 143 3.0 7.0 0.00 0.00 0.00 43 1009.6
20260901181601 79 124 2.0 7.0 0.00 0.00 0.00 43 1009.4
20260901181055 79 330 1.0 8.0 0.00 0.00 0.00 42 1009.4
20260901180554 79 317 4.0 8.0 0.00 0.00 0.00 41 1009.4
20260901180053 78 156 1.0 9.0 0.00 0.00 0.00 43 1009.6
20260901175551 78 199 1.0 11.0 0.00 0.00 0.00 43 1009.6
20260901175052 77 326 3.0 10.0 0.00 0.00 0.00 42 1009.4
20260901174552 77 340 5.0 13.0 0.00 0.00 0.00 42 1009.4
20260901174051 77 301 5.0 13.0 0.00 0.00 0.00 42 1009.5
20260901173551 77 311 5.0 9.0 0.00 0.00 0.00 40 1009.5
20260901173059 77 311 3.0 10.0 0.00 0.00 0.00 41 1009.3
20260901172552 77 315 5.0 10.0 0.00 0.00 0.00 41 1009.3
20260901172050 77 328 1.0 9.0 0.00 0.00 0.00 43 1009.5
20260901171601 77 313 3.0 9.0 0.00 0.00 0.00 41 1009.3
20260901171048 76 143 2.0 6.0 0.00 0.00 0.00 42 1009.5
20260901170548 76 324 3.0 8.0 0.00 0.00 0.00 42 1009.4
20260901170048 76 325 4.0 8.0 0.00 0.00 0.00 42 1009.4
20260901165547 75 153 0.0 4.0 0.00 0.00 0.00 46 1009.5
20260901165047 75 330 1.0 6.0 0.00 0.00 0.00 43 1009.4
20260901164547 74 291 1.0 6.0 0.00 0.00 0.00 44 1009.6
20260901164048 74 146 1.0 9.0 0.00 0.00 0.00 45 1009.5
20260901163545 74 311 5.0 9.0 0.00 0.00 0.00 44 1009.5
20260901163045 73 309 3.0 8.0 0.00 0.00 0.00 45 1009.4
20260901162545 73 264 2.0 6.0 0.00 0.00 0.00 45 1009.4
20260901162044 72 315 3.0 8.0 0.00 0.00 0.00 45 1009.3
20260901161600 72 301 3.0 8.0 0.00 0.00 0.00 44 1009.2
20260901161044 72 323 1.0 7.0 0.00 0.00 0.00 47 1009.3
20260901160544 71 312 1.0 6.0 0.00 0.00 0.00 47 1009.2
20260901160042 70 290 1.0 6.0 0.00 0.00 0.00 48 1009.2
20260901155542 70 335 2.0 8.0 0.00 0.00 0.00 49 1009.2
20260901155042 70 324 4.0 8.0 0.00 0.00 0.00 48 1009.2
20260901154553 70 354 2.0 8.0 0.00 0.00 0.00 48 1009.1
20260901154045 70 295 0.0 4.0 0.00 0.00 0.00 49 1009.0
20260901153541 69 291 1.0 6.0 0.00 0.00 0.00 49 1008.9
20260901153049 69 339 3.0 6.0 0.00 0.00 0.00 49 1008.9
20260901152542 68 338 1.0 3.0 0.00 0.00 0.00 48 1009.0
20260901152040 68 323 1.0 3.0 0.00 0.00 0.00 48 1009.0
20260901151541 68 293 0.0 2.0 0.00 0.00 0.00 48 1009.0
20260901151040 68 313 0.0 4.0 0.00 0.00 0.00 49 1009.0
20260901150539 67 263 1.0 4.0 0.00 0.00 0.00 48 1009.0
20260901150042 67 311 1.0 5.0 0.00 0.00 0.00 49 1009.1
20260901145538 67 1 1.0 5.0 0.00 0.00 0.00 49 1008.9
20260901145038 67 143 2.0 5.0 0.00 0.00 0.00 49 1009.1
20260901144542 66 168 1.0 4.0 0.00 0.00 0.00 50 1008.9
20260901144037 66 151 1.0 5.0 0.00 0.00 0.00 49 1008.7
20260901143537 66 301 0.0 5.0 0.00 0.00 0.00 48 1008.8
20260901143045 66 129 2.0 4.0 0.00 0.00 0.00 47 1008.8
20260901142536 66 312 1.0 4.0 0.00 0.00 0.00 45 1008.7
20260901142036 66 155 0.0 6.0 0.00 0.00 0.00 46 1008.7
20260901141546 66 173 1.0 6.0 0.00 0.00 0.00 44 1008.7
20260901141035 66 322 1.0 6.0 0.00 0.00 0.00 43 1008.7
20260901140535 67 312 3.0 6.0 0.00 0.00 0.00 42 1008.6
20260901140035 67 133 1.0 4.0 0.00 0.00 0.00 43 1008.6
20260901135537 67 61 2.0 4.0 0.00 0.00 0.00 43 1008.5
20260901135035 68 325 1.0 8.0 0.00 0.00 0.00 42 1008.5
20260901134535 68 88 0.0 8.0 0.00 0.00 0.00 42 1008.4
20260901134034 68 323 0.0 4.0 0.00 0.00 0.00 41 1008.5
20260901133536 69 278 1.0 4.0 0.00 0.00 0.00 40 1008.4